TimePST,TemperatureF,Dew PointF,Humidity,Sea Level PressureIn,VisibilityMPH,Wind Direction,Wind SpeedMPH,Gust SpeedMPH,PrecipitationIn,Events,Conditions,WindDirDegrees,DateUTC
12:53 AM,28.9,23.0,78,30.19,10.0,Calm,Calm,-,N/A,,Clear,0,2013-11-24 08:53:00
1:53 AM,25.0,21.0,85,30.19,8.0,Calm,Calm,-,N/A,,Clear,0,2013-11-24 09:53:00
2:53 AM,26.1,21.9,84,30.19,8.0,Calm,Calm,-,N/A,,Clear,0,2013-11-24 10:53:00
3:53 AM,27.0,21.9,81,30.18,9.0,Calm,Calm,-,N/A,,Clear,0,2013-11-24 11:53:00
4:53 AM,26.1,21.9,84,30.19,8.0,Calm,Calm,-,N/A,,Clear,0,2013-11-24 12:53:00
5:53 AM,25.0,21.0,85,30.19,10.0,Calm,Calm,-,N/A,,Clear,0,2013-11-24 13:53:00
6:53 AM,27.0,21.9,81,30.19,10.0,Calm,Calm,-,N/A,,Clear,0,2013-11-24 14:53:00
7:53 AM,26.1,21.0,81,30.20,8.0,Calm,Calm,-,N/A,,Clear,0,2013-11-24 15:53:00
8:53 AM,33.1,28.0,82,30.21,9.0,Calm,Calm,-,N/A,,Clear,0,2013-11-24 16:53:00
9:53 AM,39.9,24.1,53,30.22,10.0,Calm,Calm,-,N/A,,Clear,0,2013-11-24 17:53:00
10:53 AM,45.0,25.0,46,30.23,10.0,Calm,Calm,-,N/A,,Clear,0,2013-11-24 18:53:00
11:53 AM,46.0,23.0,40,30.22,10.0,South,3.5,-,N/A,,Clear,180,2013-11-24 19:53:00
12:53 PM,48.0,24.1,39,30.21,10.0,SSE,4.6,-,N/A,,Clear,160,2013-11-24 20:53:00
1:53 PM,50.0,24.1,36,30.19,10.0,SSE,3.5,-,N/A,,Clear,160,2013-11-24 21:53:00
2:53 PM,48.9,25.0,39,30.20,10.0,SE,6.9,-,N/A,,Clear,130,2013-11-24 22:53:00
3:53 PM,48.0,27.0,44,30.21,10.0,SE,5.8,-,N/A,,Clear,140,2013-11-24 23:53:00
4:53 PM,44.1,25.0,47,30.22,10.0,SE,6.9,-,N/A,,Clear,130,2013-11-25 00:53:00
5:53 PM,37.0,27.0,67,30.23,10.0,Calm,Calm,-,N/A,,Clear,0,2013-11-25 01:53:00
6:53 PM,34.0,25.0,70,30.25,10.0,Calm,Calm,-,N/A,,Clear,0,2013-11-25 02:53:00
7:53 PM,30.9,25.0,79,30.26,10.0,Calm,Calm,-,N/A,,Clear,0,2013-11-25 03:53:00
8:53 PM,30.9,25.0,79,30.27,10.0,Calm,Calm,-,N/A,,Clear,0,2013-11-25 04:53:00
9:53 PM,30.0,24.1,79,30.28,10.0,Calm,Calm,-,N/A,,Clear,0,2013-11-25 05:53:00
10:53 PM,28.9,24.1,82,30.28,9.0,Calm,Calm,-,N/A,,Clear,0,2013-11-25 06:53:00
11:53 PM,28.0,24.1,85,30.30,8.0,Calm,Calm,-,N/A,,Clear,0,2013-11-25 07:53:00